This demonstration page uses our WeatherBlox Daily Observations layout. Learn more.

Left ArrowRight Arrow

Hourly Observations for March 30, 2020

Temp ( °F °C ) Dew Point ( °F °C ) Humidity (%) Winds ( mph kmh ) Pressure ( in mb ) Visibility ( mi km ) Precip ( " mm )
2:15 am 02:15 Clear N/A N/A N/A W 15 24 N/A 10 16 N/A
4:10 am 04:10 Clear N/A N/A N/A W 12 19 N/A 10 16 N/A
5:55 am 05:55 Clear N/A N/A N/A W 14 22 N/A 10 16 N/A
7:30 am 07:30 Clear N/A N/A N/A WNW 9 15 N/A 10 16 N/A
8:15 am 08:15 Sunny 42 5.6 32 0.2 69 69 WNW 12 19 30.14 1021 10 16 N/A
8:35 am 08:35 Sunny 43 5.9 32 0.2 67 67 WNW 10 17 30.15 1021 10 16 N/A
8:55 am 08:55 Sunny 43 6.2 33 0.4 67 67 W 12 19 30.16 1021 10 16 N/A
9:15 am 09:15 Sunny 43 6.3 33 0.4 66 66 WNW 15 24 30.17 1022 10 16 N/A
9:35 am 09:35 Sunny 44 6.7 33 0.5 65 65 NW 14 22 30.16 1021 10 16 N/A
9:55 am 09:55 Sunny 45 7.1 33 0.7 64 64 WNW 13 20 30.16 1021 10 16 N/A
10:15 am 10:15 Sunny 46 7.7 34 0.9 62 62 WNW 13 20 30.16 1021 10 16 N/A
10:35 am 10:35 Sunny 47 8.3 34 1 60 60 WNW 12 19 30.17 1022 10 16 N/A
10:55 am 10:55 Sunny 48 8.7 33 0.8 58 58 W 17 28 30.16 1021 10 16 N/A
11:15 am 11:15 Sunny 49 9.2 34 1 57 57 WNW 12 19 30.16 1021 10 16 N/A
11:35 am 11:35 Sunny 50 9.8 34 1 55 55 W 17 28 30.17 1022 10 16 N/A
11:55 am 11:55 Sunny 50 10.2 34 0.9 53 53 WNW 15 24 30.17 1022 10 16 N/A
12:15 pm 12:15 Sunny 52 10.9 33 0.8 50 50 WNW 18 30 30.17 1022 10 16 N/A
12:35 pm 12:35 Sunny 52 11.3 34 0.9 49 49 W 18 30 30.17 1022 10 16 N/A
12:55 pm 12:55 Sunny 53 11.5 34 0.9 48 48 WNW 16 26 30.16 1021 10 16 N/A
1:15 pm 13:15 Sunny 54 12.2 33 0.6 45 45 W 18 30 30.15 1021 10 16 N/A
1:35 pm 13:35 Sunny 54 12.2 33 0.4 45 45 NW 18 30 30.15 1021 10 16 N/A
1:55 pm 13:55 Sunny 55 12.8 33 0.5 43 43 WNW 16 26 30.14 1021 10 16 N/A
2:15 pm 14:15 Sunny 55 13 34 0.9 44 44 WNW 15 24 30.15 1021 10 16 N/A
2:35 pm 14:35 Sunny 55 12.9 34 1 44 44 WNW 15 24 30.14 1021 10 16 N/A
2:55 pm 14:55 Sunny 56 13.4 34 1.1 43 43 WNW 13 20 30.14 1021 10 16 N/A
3:15 pm 15:15 Partly Cloudy 56 13.3 35 1.4 45 45 NW 14 22 30.13 1020 10 16 N/A
3:35 pm 15:35 Sunny 56 13.4 35 1.5 45 45 WNW 14 22 30.13 1020 10 16 N/A
3:55 pm 15:55 Sunny 57 13.7 36 2.1 46 46 WNW 12 19 30.11 1020 10 16 N/A
4:15 pm 16:15 Sunny 57 14.1 36 2.4 45 45 WNW 14 22 30.11 1020 10 16 N/A
4:35 pm 16:35 Partly Cloudy 58 14.2 37 2.6 46 46 W 12 19 30.10 1019 10 16 N/A
4:55 pm 16:55 Partly Cloudy 57 14.1 36 2.4 45 45 NW 18 30 30.09 1019 10 16 N/A
5:15 pm 17:15 Partly Cloudy 58 14.5 37 2.9 46 46 WNW 14 22 30.08 1018 10 16 N/A
5:35 pm 17:35 Partly Cloudy 57 14 36 2 44 44 WNW 15 24 30.08 1019 10 16 N/A
5:55 pm 17:55 Partly Cloudy 57 13.8 36 2.2 46 46 NW 13 20 30.08 1019 10 16 N/A
6:15 pm 18:15 Partly Cloudy 56 13.5 36 2.3 47 47 NW 13 20 30.08 1019 10 16 N/A
6:35 pm 18:35 Sunny 56 13.4 36 2 46 46 NW 12 19 30.08 1019 10 16 N/A
6:55 pm 18:55 Sunny 56 13.2 35 1.9 47 47 NNW 14 22 30.08 1019 10 16 N/A
7:15 pm 19:15 Partly Cloudy 56 13.2 35 1.8 46 46 NNW 8 13 30.09 1019 10 16 N/A
7:35 pm 19:35 Mostly Cloudy 54 12.4 35 1.8 49 49 NNW 10 17 30.08 1019 10 16 N/A
7:55 pm 19:55 Mostly Cloudy 53 11.9 36 2.1 51 51 NNW 9 15 30.09 1019 10 16 N/A
8:15 pm 20:15 Mostly Cloudy 52 11.3 37 2.5 55 55 N 5 7 30.10 1019 10 16 N/A
8:35 pm 20:35 Partly Cloudy 51 10.6 37 2.8 59 59 N 6 9 30.11 1020 10 16 N/A
8:55 pm 20:55 Clear 50 10.1 37 3 62 62 NNE 10 17 30.12 1020 10 16 N/A
9:15 pm 21:15 Clear 49 9.5 37 3 64 64 N 7 11 30.13 1020 10 16 N/A
9:35 pm 21:35 Clear 49 9.4 37 2.8 64 64 N 7 11 30.13 1020 10 16 N/A
9:55 pm 21:55 Clear 48 9 37 2.7 65 65 NNE 7 11 30.13 1020 10 16 N/A
10:15 pm 22:15 Clear 47 8.4 38 3.1 70 70 NE 7 11 30.13 1020 10 16 N/A
10:35 pm 22:35 Clear 46 7.9 38 3.1 72 72 NNE 9 15 30.13 1020 10 16 N/A
10:55 pm 22:55 Clear 45 7.3 38 3.1 75 75 NNE 16 26 30.13 1020 10 16 N/A
11:15 pm 23:15 Clear 44 6.6 36 2.4 75 75 NNE 13 20 30.14 1021 10 16 N/A
11:35 pm 23:35 Clear 43 6.3 36 2.1 75 75 NNE 10 17 30.14 1021 10 16 N/A
11:55 pm 23:55 Clear 43 6.1 35 1.6 73 73 NNE 9 15 30.13 1020 10 16 N/A

Powered by AerisWeather